Location: Arbon
(43.0005°N, 0.7472°E)
Time: 21:39:49
(UTC+00:00)

Altair - Pass Details

Date: 03 December 2020
Orbit: 1501 x 1682 km, 47.2° (Epoch: 26 January)

Event Time Altitude Azimuth Distance (km) Brightness Sun altitude
Rises 22:39:36 0° 282° (WNW) 4,690 10.3 -65.0°
Enters shadow 22:40:59 - 283° (WNW) 4,243 10.0 -65.1°
Reaches altitude 10° 22:42:42 10° 285° (WNW) 3,690 - -65.3°
Maximum altitude 22:51:57 71° 9° (N) 1,577 - -66.3°
Drops below altitude 10° 23:01:07 10° 94° (E) 3,657 - -67.2°
Sets 23:04:10 0° 96° (E) 4,646 - -67.4°
